When you browse on this site, cookies collect data to enhance your experience and personalize the content and advertising you see.
Visit our Privacy Policy to learn more. By continuing to use the site, you agree to this use of cookies and data.
  • In Hungary
  • List of Countries
  • For 7 days
  • Water Temperature
  • Satellite Maps
  • Weather Map
  • News
  • Weather Widgets
  • user-avatar
    Login

    Hourly Weather Guadalajara

    Today, 19 March, Tuesday

    Time Temperature Precipitation Wind Pressure Humidity
    00:00 +4°C° 0 mm 4 mps 705 mmHg 68%
    01:00 +3°C° 0 mm 3 mps 705 mmHg 70%
    02:00 +3°C° 0 mm 3 mps 705 mmHg 71%
    03:00 +4°C° 0 mm 2 mps 705 mmHg 73%
    04:00 +4°C° 0 mm 2 mps 705 mmHg 72%
    05:00 +4°C° 0 mm 2 mps 705 mmHg 72%
    06:00 +3°C° 0 mm 3 mps 705 mmHg 69%
    07:00 +5°C° 0 mm 4 mps 705 mmHg 65%
    08:00 +6°C° 0 mm 4 mps 705 mmHg 61%
    09:00 +8°C° 0 mm 5 mps 705 mmHg 57%
    10:00 +9°C° 0 mm 6 mps 705 mmHg 51%
    11:00 +10°C° 0 mm 7 mps 705 mmHg 46%
    12:00 +12°C° 0 mm 7 mps 705 mmHg 40%
    13:00 +12°C° 0 mm 7 mps 705 mmHg 40%
    14:00 +12°C° 0 mm 7 mps 705 mmHg 39%
    15:00 +12°C° 0 mm 7 mps 705 mmHg 39%
    16:00 +11°C° 0 mm 6 mps 705 mmHg 42%
    17:00 +10°C° 0 mm 6 mps 705 mmHg 45%
    18:00 +9°C° 0 mm 5 mps 705 mmHg 49%
    19:00 +8°C° 0 mm 4 mps 705 mmHg 54%
    20:00 +6°C° 0 mm 4 mps 706 mmHg 59%
    21:00 +5°C° 0 mm 3 mps 706 mmHg 63%
    22:00 +4°C° 0 mm 3 mps 707 mmHg 67%
    23:00 +3°C° 0 mm 3 mps 707 mmHg 70%

    Tomorrow, 20 March, Wednesday

    Time Temperature Precipitation Wind Pressure Humidity
    00:00 +3°C° 0 mm 3 mps 707 mmHg 73%
    01:00 +2°C° 0 mm 3 mps 707 mmHg 74%
    02:00 +2°C° 0 mm 3 mps 707 mmHg 75%
    03:00 +1°C° 0 mm 3 mps 707 mmHg 77%
    04:00 +1°C° 0 mm 3 mps 707 mmHg 78%
    05:00 +1°C° 0 mm 3 mps 707 mmHg 79%
    06:00 0°C° 0 mm 3 mps 707 mmHg 81%
    07:00 +1°C° 0 mm 4 mps 707 mmHg 72%
    08:00 +3°C° 0 mm 5 mps 707 mmHg 63%
    09:00 +6°C° 0 mm 5 mps 708 mmHg 54%
    10:00 +7°C° 0 mm 5 mps 707 mmHg 48%
    11:00 +10°C° 0 mm 4 mps 707 mmHg 42%
    12:00 +12°C° 0 mm 4 mps 707 mmHg 37%
    13:00 +12°C° 0 mm 3 mps 707 mmHg 34%
    14:00 +13°C° 0 mm 3 mps 706 mmHg 32%
    15:00 +14°C° 0 mm 3 mps 706 mmHg 30%
    16:00 +13°C° 0 mm 3 mps 706 mmHg 33%
    17:00 +12°C° 0 mm 4 mps 706 mmHg 37%
    18:00 +11°C° 0 mm 4 mps 706 mmHg 40%
    19:00 +10°C° 0 mm 4 mps 706 mmHg 41%
    20:00 +7°C° 0 mm 5 mps 707 mmHg 42%
    21:00 +5°C° 0 mm 6 mps 707 mmHg 43%
    22:00 +5°C° 0 mm 5 mps 707 mmHg 48%
    23:00 +4°C° 0 mm 4 mps 708 mmHg 54%

    Day after tomorrow, 21 March, Thursday

    Time Temperature Precipitation Wind Pressure Humidity
    00:00 +4°C° 0 mm 3 mps 708 mmHg 59%
    01:00 +3°C° 0 mm 3 mps 708 mmHg 61%
    02:00 +4°C° 0 mm 2 mps 707 mmHg 63%
    03:00 +3°C° 0 mm 2 mps 707 mmHg 65%
    04:00 +3°C° 0 mm 2 mps 707 mmHg 66%
    05:00 +2°C° 0 mm 2 mps 707 mmHg 68%
    06:00 +3°C° 0 mm 1 mps 707 mmHg 69%
    07:00 +5°C° 0 mm 1 mps 708 mmHg 63%
    08:00 +6°C° 0 mm 2 mps 708 mmHg 58%
    09:00 +8°C° 0 mm 2 mps 708 mmHg 52%
    10:00 +9°C° 0 mm 2 mps 708 mmHg 45%
    11:00 +12°C° 0 mm 2 mps 708 mmHg 38%
    12:00 +14°C° 0 mm 2 mps 707 mmHg 31%
    13:00 +14°C° 0 mm 1 mps 707 mmHg 29%
    14:00 +15°C° 0 mm 1 mps 706 mmHg 26%
    15:00 +16°C° 0 mm 1 mps 706 mmHg 24%
    16:00 +15°C° 0 mm 1 mps 706 mmHg 27%
    17:00 +14°C° 0 mm 1 mps 705 mmHg 31%
    18:00 +13°C° 0 mm 2 mps 705 mmHg 34%
    19:00 +12°C° 0 mm 2 mps 706 mmHg 35%
    20:00 +9°C° 0 mm 3 mps 706 mmHg 35%
    21:00 +7°C° 0 mm 4 mps 706 mmHg 36%
    22:00 +7°C° 0 mm 3 mps 707 mmHg 42%
    23:00 +6°C° 0 mm 2 mps 707 mmHg 48%

    22 March, Friday

    Time Temperature Precipitation Wind Pressure Humidity
    00:00 +6°C° 0 mm 1 mps 707 mmHg 54%
    01:00 +6°C° 0 mm 1 mps 706 mmHg 55%
    02:00 +5°C° 0 mm 1 mps 706 mmHg 57%
    03:00 +5°C° 0 mm 1 mps 706 mmHg 58%
    04:00 +5°C° 0 mm 1 mps 706 mmHg 58%
    05:00 +4°C° 0 mm 2 mps 706 mmHg 58%
    06:00 +3°C° 0 mm 2 mps 706 mmHg 58%
    07:00 +5°C° 0 mm 2 mps 706 mmHg 52%
    08:00 +7°C° 0 mm 2 mps 706 mmHg 45%
    09:00 +10°C° 0 mm 2 mps 707 mmHg 39%
    10:00 +12°C° 0 mm 2 mps 706 mmHg 36%
    11:00 +14°C° 0 mm 2 mps 706 mmHg 33%
    12:00 +15°C° 0 mm 2 mps 706 mmHg 30%
    13:00 +16°C° 0 mm 2 mps 705 mmHg 30%
    14:00 +16°C° 0 mm 1 mps 705 mmHg 31%
    15:00 +18°C° 0 mm 1 mps 705 mmHg 31%
    16:00 +16°C° 0 mm 1 mps 704 mmHg 36%
    17:00 +15°C° 0 mm 1 mps 704 mmHg 40%
    18:00 +14°C° 0 mm 1 mps 704 mmHg 45%
    19:00 +13°C° 0 mm 1 mps 705 mmHg 47%
    20:00 +12°C° 0 mm 1 mps 705 mmHg 48%
    21:00 +10°C° 0 mm 2 mps 706 mmHg 50%
    22:00 +10°C° 0 mm 1 mps 706 mmHg 57%
    23:00 +9°C° 0 mm 1 mps 706 mmHg 64%

    23 March, Saturday

    Time Temperature Precipitation Wind Pressure Humidity
    00:00 +8°C° 0 mm 1 mps 705 mmHg 71%
    01:00 +8°C° 0 mm 1 mps 705 mmHg 73%
    02:00 +7°C° 0 mm 1 mps 705 mmHg 75%
    03:00 +6°C° 0 mm 2 mps 705 mmHg 77%
    04:00 +6°C° 0 mm 2 mps 705 mmHg 77%
    05:00 +6°C° 0 mm 2 mps 705 mmHg 77%
    06:00 +5°C° 0 mm 2 mps 705 mmHg 77%
    07:00 +7°C° 0 mm 2 mps 705 mmHg 68%
    08:00 +10°C° 0 mm 2 mps 705 mmHg 60%
    09:00 +13°C° 0 mm 2 mps 705 mmHg 51%
    10:00 +14°C° 0 mm 2 mps 705 mmHg 46%
    11:00 +16°C° 0 mm 2 mps 705 mmHg 41%
    12:00 +17°C° 0 mm 2 mps 704 mmHg 36%
    13:00 +18°C° 0 mm 1 mps 704 mmHg 35%
    14:00 +19°C° 0 mm 1 mps 704 mmHg 33%
    15:00 +19°C° 0 mm 1 mps 703 mmHg 32%
    16:00 +18°C° 0 mm 1 mps 703 mmHg 36%
    17:00 +16°C° 0 mm 2 mps 703 mmHg 40%
    18:00 +16°C° 0 mm 2 mps 703 mmHg 44%
    19:00 +15°C° 0 mm 2 mps 703 mmHg 46%
    20:00 +14°C° 0 mm 2 mps 704 mmHg 47%
    21:00 +13°C° 0 mm 1 mps 704 mmHg 49%
    22:00 +11°C° 0 mm 1 mps 704 mmHg 53%
    23:00 +10°C° 0 mm 1 mps 704 mmHg 58%

    24 March, Sunday

    Time Temperature Precipitation Wind Pressure Humidity
    00:00 +8°C° 0 mm 0 mps 704 mmHg 62%
    01:00 +9°C° 0 mm 1 mps 704 mmHg 63%
    02:00 +8°C° 0 mm 1 mps 703 mmHg 63%
    03:00 +7°C° 0 mm 2 mps 703 mmHg 64%
    04:00 +7°C° 0 mm 2 mps 703 mmHg 64%
    05:00 +7°C° 0 mm 3 mps 703 mmHg 64%
    06:00 +7°C° 0 mm 3 mps 704 mmHg 64%
    07:00 +9°C° 0 mm 3 mps 704 mmHg 57%
    08:00 +11°C° 0 mm 4 mps 704 mmHg 49%
    09:00 +13°C° 0 mm 5 mps 705 mmHg 42%
    10:00 +15°C° 0 mm 5 mps 705 mmHg 38%
    11:00 +16°C° 0 mm 5 mps 705 mmHg 35%
    12:00 +19°C° 0 mm 4 mps 705 mmHg 31%
    13:00 +19°C° 0 mm 4 mps 704 mmHg 33%
    14:00 +19°C° 0 mm 3 mps 704 mmHg 34%
    15:00 +18°C° 0 mm 3 mps 703 mmHg 35%
    16:00 +18°C° 0 mm 2 mps 703 mmHg 40%
    17:00 +18°C° 0 mm 1 mps 703 mmHg 44%
    18:00 +15°C° 0 mm 0 mps 703 mmHg 48%
    19:00 +15°C° 0 mm 1 mps 704 mmHg 48%
    20:00 +14°C° 0 mm 2 mps 704 mmHg 48%
    21:00 +13°C° 0 mm 2 mps 705 mmHg 47%
    22:00 +12°C° 0 mm 2 mps 705 mmHg 51%
    23:00 +10°C° 0 mm 2 mps 705 mmHg 54%
    Show more